[[{"header":{"parameterUnit":"m.s-1","parameterCategory":1,"la1":30.2991,"la2":30.254,"lo1":-89.0895,"lo2":-89.0444,"dy":0.0017,"dx":0.0017,"nx":28,"ny":28,"refTime":"2024-07-21T21:00:00:Z","depth":0,"parameterNumber":2,"parameterNumberName":"U-component_of_WINDS"},"data":[0,0,0,0,0,0,0,0,0,0,0,0,0,0,0,0,0,0,0,0,0,0,0,0,0,0,0,0,0,0,0,0,0,0,0,0,0,0,0,0,0,0,0,0,0,0,0,0,0,0,0,0,0,0,0,0,0,0,1.218,1.218,0,1.2215,1.2216,1.2216,1.2217,1.2217,1.2217,1.2216,1.2251,1.2253,1.2254,0,0,0,0,0,0,0,0,0,0,0,0,0,1.211,1.2111,1.2179,1.218,1.218,1.2215,1.2216,1.2216,1.2217,1.2217,1.2216,1.2216,1.2251,1.2253,1.2254,0,0,0,0,0,0,0,0,0,0,0,0,0,1.2142,1.2112,1.2179,1.2185,1.2186,1.2215,1.2216,1.2216,1.2218,1.2217,1.2216,1.2216,1.2251,1.2252,1.2254,1.228,0,0,1.2261,1.2261,0,0,0,0,0,0,0,0,1.214,1.2145,1.2184,1.2185,1.2186,1.2211,1.2204,1.2237,1.2218,1.2206,1.2216,1.2215,1.2239,1.2241,1.225,1.2281,1.2283,1.2261,1.2262,1.2263,1.2263,0,0,0,0,0,0,0,1.2138,1.2143,1.2194,1.2185,1.2186,1.2185,1.2189,1.221,1.2225,1.2207,1.2207,1.2211,1.2239,1.2248,1.225,1.2283,1.2261,1.2262,1.2264,1.2264,1.2335,1.2336,0,0,0,0,0,0,1.2135,1.2141,1.2192,1.2195,1.2161,1.2187,1.2191,1.2204,1.2225,1.2228,1.2212,1.2211,1.2244,1.2248,1.2252,1.2281,1.2263,1.2265,1.2266,1.2334,1.2335,1.2336,0,0,0,0,0,0,1.2134,1.214,1.2191,1.2168,1.2175,1.2189,1.2203,1.2205,1.2213,1.2229,1.2231,1.2218,1.2244,1.2249,1.2272,1.2282,1.2266,1.2267,1.2334,1.2335,1.2336,1.2341,0,0,0,0,0,0,1.2132,1.2139,1.215,1.2168,1.2176,1.2212,1.2203,1.2206,1.2217,1.2217,1.2235,1.2238,1.2244,1.2269,1.2274,1.2285,1.2269,1.2333,1.2334,1.2335,1.234,1.2342,1.2344,0,0,0,0,0,1.2129,1.215,1.215,1.2156,1.2189,1.2212,1.2217,1.2224,1.2218,1.2228,1.2237,1.2237,1.2281,1.2272,1.2277,1.2289,1.2332,1.2334,1.2335,1.2339,1.2342,1.2344,0,0,0,0,0,0,1.2132,1.2152,1.2153,1.218,1.2195,1.2213,1.2226,1.2227,1.2242,1.2241,1.2249,1.2253,1.2276,1.2285,1.2275,1.2313,1.2306,1.2308,1.2306,1.2309,1.2311,1.2308,1.2271,0,0,0,0,0,1.2135,1.2153,1.217,1.2193,1.22,1.2211,1.2222,1.2226,1.2241,1.2247,1.2258,1.2272,1.2288,1.2299,1.2316,1.2341,1.2344,1.2352,1.2353,1.2355,1.2357,1.2369,1.2372,1.2341,1.2341,1.2341,0,0,1.2143,1.2157,1.2168,1.2193,1.2205,1.2222,1.2216,1.2235,1.2248,1.225,1.2272,1.2281,1.2297,1.2321,1.2332,1.2329,1.2366,1.2357,1.2358,1.2359,1.2371,1.2374,1.2377,1.2342,1.2342,1.2342,0,0,1.2166,1.2179,1.2198,1.221,1.2227,1.2235,1.2239,1.2257,1.2262,1.2285,1.2286,1.2301,1.233,1.2341,1.235,1.2375,1.2375,1.238,1.239,1.2402,1.2405,1.2407,1.2415,1.2418,1.2382,1.2382,1.2382,0,1.2174,1.2201,1.2208,1.2227,1.2237,1.2239,1.2258,1.2269,1.2291,1.2297,1.2293,1.2329,1.234,1.2365,1.2371,1.2379,1.2384,1.2378,1.2404,1.2406,1.2408,1.2416,1.2419,1.2383,1.2383,1.2383,1.2383,0,1.2208,1.2227,1.224,1.2261,1.2273,1.2291,1.2301,1.2312,1.2314,1.2322,1.2344,1.2357,1.2375,1.2382,1.2385,1.2408,1.2405,1.2402,1.2395,1.2412,1.2419,1.2422,1.2384,1.2383,1.2383,1.2383,0,0,1.2235,1.2258,1.2263,1.2272,1.229,1.2304,1.2322,1.234,1.2349,1.2363,1.2377,1.2401,1.2398,1.2409,1.2413,1.2424,1.2441,1.242,1.242,1.2422,1.2465,1.2466,1.247,1.2441,1.2442,1.2442,1.2463,0,1.2259,1.2291,1.2298,1.2326,1.2341,1.2343,1.2358,1.2371,1.2378,1.2392,1.24,1.2416,1.2412,1.2418,1.2428,1.2437,1.2449,1.2435,1.2453,1.2454,1.2449,1.2473,1.2475,1.2495,1.2466,1.2467,1.2467,0,1.2292,1.2307,1.2336,1.2351,1.2358,1.2372,1.2387,1.2401,1.2415,1.2419,1.243,1.2432,1.245,1.2442,1.2465,1.2455,1.2463,1.2468,1.2469,1.247,1.2461,1.2474,1.2501,1.2504,1.2472,1.2471,1.2471,0,1.2306,1.2334,1.2354,1.2362,1.238,1.2389,1.2397,1.241,1.242,1.2434,1.244,1.2456,1.2464,1.2475,1.2482,1.2475,1.2504,1.2497,1.2507,1.2507,1.2513,1.2512,1.254,1.2519,1.2519,1.2519,1.2519,0,1.2332,1.235,1.2361,1.2373,1.2393,1.2399,1.2418,1.2425,1.2437,1.245,1.2452,1.2465,1.2473,1.2486,1.2491,1.2508,1.2512,1.2515,1.2516,1.2515,1.2514,1.2519,1.2518,1.252,1.2519,1.2519,1.2519,0,1.2352,1.236,1.2382,1.2398,1.2402,1.2415,1.2427,1.2439,1.2446,1.2462,1.2467,1.2477,1.2492,1.25,1.2519,1.2522,1.2542,1.2542,1.2537,1.2537,1.2547,1.2545,1.2578,1.2582,1.2559,1.256,1.256,0,1.2367,1.2381,1.2397,1.2406,1.2414,1.2429,1.2439,1.2445,1.2455,1.2471,1.248,1.2496,1.2508,1.2532,1.2541,1.2555,1.2556,1.2566,1.2558,1.2555,1.2554,1.2553,1.2554,1.2567,1.2568,1.2568,1.2568,0,1.2394,1.2397,1.2411,1.2426,1.2437,1.245,1.2462,1.2469,1.2477,1.2488,1.2504,1.2513,1.2532,1.2547,1.2562,1.2569,1.2569,1.2571,1.2573,1.2572,1.2568,1.2569,1.254,1.257,1.257,1.2569,1.2569,1.2569,1.2411,1.2422,1.2435,1.245,1.246,1.247,1.2482,1.2489,1.2503,1.2519,1.2522,1.2538,1.255,1.2569,1.2577,1.2589,1.2587,1.2591,1.2592,1.2593,1.2593,1.2566,1.2592,1.2592,1.2592,1.2592,1.2592,0,1.2436,1.2444,1.2458,1.2474,1.2486,1.2486,1.2498,1.2508,1.2522,1.2533,1.2545,1.2562,1.2577,1.2586,1.26,1.2608,1.2608,1.2611,1.261,1.2611,1.2595,1.259,1.261,1.261,1.261,1.261,1.261,1.261,1.2451,1.2469,1.2474,1.2497,1.2504,1.252,1.2527,1.2537,1.2545,1.2565,1.2576,1.2582,1.2592,1.2607,1.2619,1.2621,1.2626,1.2629,1.2631,1.2615,1.2613,1.2611,1.2607,1.263,1.263,1.2646,1.2646,1.2647]},{"header":{"parameterUnit":"m.s-1","parameterCategory":1,"la1":30.2991,"la2":30.254,"lo1":-89.0895,"lo2":-89.0444,"dy":0.0017,"dx":0.0017,"nx":28,"ny":28,"refTime":"2024-07-21T21:00:00:Z","depth":0,"parameterNumber":3,"parameterNumberName":"V-component_of_WINDS"},"data":[0,0,0,0,0,0,0,0,0,0,0,0,0,0,0,0,0,0,0,0,0,0,0,0,0,0,0,0,0,0,0,0,0,0,0,0,0,0,0,0,0,0,0,0,0,0,0,0,0,0,0,0,0,0,0,0,0,0,1.7223,1.7223,0,1.726,1.726,1.726,1.7257,1.7256,1.7255,1.7255,1.7291,1.7293,1.7294,0,0,0,0,0,0,0,0,0,0,0,0,0,1.7145,1.7147,1.7223,1.7223,1.7224,1.726,1.726,1.7261,1.7257,1.7256,1.7255,1.7255,1.7291,1.7292,1.7294,0,0,0,0,0,0,0,0,0,0,0,0,0,1.718,1.7147,1.7223,1.7226,1.7227,1.7259,1.726,1.7261,1.7257,1.7256,1.7255,1.7254,1.729,1.7292,1.7295,1.7326,0,0,1.7301,1.7302,0,0,0,0,0,0,0,0,1.7178,1.7183,1.7225,1.7226,1.7227,1.7253,1.7246,1.7282,1.7257,1.7245,1.7255,1.7254,1.7279,1.7282,1.7291,1.7327,1.7329,1.7302,1.7303,1.7304,1.7305,0,0,0,0,0,0,0,1.7176,1.7181,1.7237,1.7226,1.7227,1.7225,1.7229,1.7253,1.7267,1.7246,1.7246,1.7251,1.7279,1.7289,1.7292,1.733,1.7302,1.7304,1.7305,1.7306,1.7391,1.7392,0,0,0,0,0,0,1.7173,1.718,1.7236,1.7238,1.72,1.7227,1.7231,1.7245,1.7266,1.7269,1.7251,1.725,1.7285,1.7289,1.7293,1.733,1.7304,1.7306,1.7307,1.739,1.7391,1.7392,0,0,0,0,0,0,1.7171,1.7178,1.7235,1.7209,1.7216,1.7229,1.7245,1.7246,1.7256,1.727,1.7272,1.7259,1.7285,1.729,1.7317,1.7331,1.7307,1.7309,1.7389,1.7391,1.7392,1.7404,0,0,0,0,0,0,1.7169,1.7178,1.7191,1.7209,1.7217,1.7259,1.7246,1.7248,1.726,1.7259,1.7278,1.728,1.7284,1.7314,1.7319,1.7334,1.7311,1.7388,1.739,1.7391,1.7403,1.7406,1.7409,0,0,0,0,0,1.7166,1.7193,1.7191,1.7198,1.7234,1.726,1.7265,1.727,1.7261,1.7274,1.7282,1.7279,1.7328,1.7317,1.7323,1.7338,1.7387,1.7389,1.7391,1.7401,1.7405,1.7409,0,0,0,0,0,0,1.7176,1.7196,1.7194,1.7227,1.7242,1.726,1.7276,1.7274,1.7292,1.729,1.7295,1.7299,1.7326,1.7335,1.7322,1.7368,1.7356,1.736,1.7362,1.7366,1.7369,1.7366,1.7313,0,0,0,0,0,1.7182,1.7202,1.7218,1.7246,1.7253,1.7263,1.7275,1.7277,1.7292,1.7299,1.7309,1.7324,1.7342,1.7354,1.7372,1.7403,1.7407,1.7417,1.742,1.7422,1.7425,1.744,1.7445,1.7399,1.7399,1.7399,0,0,1.7194,1.7207,1.722,1.7248,1.726,1.7279,1.7268,1.7291,1.7305,1.7302,1.7328,1.7336,1.7352,1.7382,1.7395,1.7389,1.7438,1.7425,1.7426,1.7428,1.7443,1.7447,1.7451,1.74,1.74,1.74,0,0,1.7227,1.724,1.7264,1.7275,1.7293,1.7299,1.7304,1.7321,1.7327,1.7353,1.7351,1.7367,1.7399,1.741,1.742,1.7454,1.7452,1.746,1.7476,1.749,1.7494,1.7497,1.7509,1.7513,1.7463,1.7463,1.7463,0,1.7241,1.7272,1.7276,1.7298,1.7309,1.7307,1.733,1.7341,1.7363,1.737,1.7364,1.7403,1.7413,1.7444,1.7452,1.7461,1.7466,1.7458,1.7493,1.7497,1.75,1.751,1.7515,1.7463,1.7463,1.7463,1.7463,0,1.7286,1.7307,1.7324,1.7346,1.7359,1.7381,1.7388,1.74,1.7401,1.7407,1.7433,1.7445,1.7465,1.7472,1.7473,1.7502,1.7498,1.7492,1.7481,1.7505,1.7515,1.7519,1.7465,1.7464,1.7464,1.7464,0,0,1.7329,1.735,1.7357,1.7365,1.7383,1.7399,1.742,1.7439,1.7449,1.7464,1.7481,1.7507,1.7501,1.7512,1.7514,1.7527,1.7551,1.7519,1.7519,1.7524,1.7583,1.7587,1.7592,1.7549,1.755,1.7551,1.7581,0,1.7363,1.7402,1.7405,1.7439,1.7457,1.7453,1.7471,1.7484,1.7489,1.7505,1.751,1.7528,1.752,1.7526,1.7539,1.7546,1.7563,1.7543,1.7564,1.7565,1.7561,1.7598,1.7603,1.7631,1.7585,1.7586,1.7587,0,1.741,1.7425,1.7461,1.7474,1.7481,1.7498,1.7514,1.7529,1.7542,1.7545,1.7556,1.7556,1.7576,1.7562,1.7589,1.7576,1.7584,1.7589,1.759,1.7592,1.7578,1.7601,1.764,1.7645,1.7593,1.7593,1.7592,0,1.7436,1.7465,1.749,1.7498,1.7514,1.7525,1.7532,1.7544,1.7554,1.7568,1.7575,1.7591,1.76,1.7611,1.7615,1.7605,1.7641,1.7628,1.7643,1.7643,1.7652,1.7651,1.7693,1.7657,1.7657,1.7657,1.7657,0,1.7474,1.7496,1.7502,1.7517,1.7541,1.7543,1.7566,1.7572,1.7582,1.7597,1.7595,1.7609,1.7612,1.7627,1.7629,1.765,1.7654,1.7657,1.7657,1.7657,1.7657,1.7663,1.7661,1.7658,1.7658,1.7658,1.7657,0,1.7509,1.7513,1.754,1.7552,1.7555,1.7572,1.7582,1.7596,1.76,1.7619,1.7624,1.7631,1.7647,1.7651,1.7671,1.7673,1.7698,1.7696,1.7694,1.7693,1.7708,1.7706,1.7756,1.7762,1.7721,1.7722,1.7722,0,1.7533,1.7549,1.7563,1.7573,1.758,1.7597,1.7607,1.7609,1.7619,1.7634,1.7645,1.7662,1.7675,1.7701,1.7708,1.7722,1.7721,1.7737,1.7723,1.7722,1.7721,1.772,1.7721,1.774,1.774,1.7741,1.7741,0,1.7575,1.7576,1.7591,1.7607,1.7619,1.7631,1.7642,1.765,1.7654,1.7665,1.7682,1.7692,1.7712,1.7728,1.7742,1.7748,1.7745,1.7745,1.7749,1.775,1.7747,1.7748,1.7701,1.7744,1.7744,1.7744,1.7743,1.7743,1.7605,1.7619,1.763,1.7646,1.7655,1.7665,1.7678,1.7683,1.7697,1.7713,1.7713,1.7731,1.7741,1.776,1.7767,1.778,1.7775,1.7781,1.7783,1.7784,1.7785,1.7745,1.7783,1.7783,1.7783,1.7782,1.7782,0,1.7647,1.7653,1.7668,1.7684,1.7696,1.7691,1.7703,1.7713,1.7729,1.7739,1.7751,1.7769,1.7784,1.779,1.7804,1.7814,1.7813,1.7817,1.7817,1.7818,1.7789,1.7784,1.7818,1.7818,1.7818,1.7818,1.7818,1.7818,1.7671,1.7693,1.7695,1.772,1.7726,1.7744,1.7751,1.776,1.7767,1.7788,1.78,1.7803,1.7811,1.7825,1.7838,1.7839,1.7845,1.785,1.7851,1.7824,1.782,1.7817,1.7812,1.7851,1.7851,1.7878,1.7879,1.7879]}]]